Time,TemperatureF,DewpointF,PressureIn,WindDirection,WindDirectionDegrees,WindSpeedMPH,WindSpeedGustMPH,Humidity,HourlyPrecipIn,Conditions,Clouds,dailyrainin,SoftwareType,DateUTC
2013-05-06 00:02:00,47.0,46.0,29.95,West,263,0.0,0.0,97,0.07,,,1.92,,2013-05-06 04:02:00,
2013-05-06 00:12:00,47.0,46.0,29.95,West,263,0.0,0.0,97,0.07,,,1.92,,2013-05-06 04:12:00,
2013-05-06 00:23:00,47.0,46.0,29.93,West,263,0.0,0.0,97,0.06,,,1.89,,2013-05-06 04:23:00,
2013-05-06 00:32:00,47.0,46.0,29.93,West,263,0.0,0.0,97,0.04,,,1.88,,2013-05-06 04:32:00,
2013-05-06 00:42:00,47.0,46.0,29.93,West,263,0.0,0.0,97,0.04,,,1.88,,2013-05-06 04:42:00,
2013-05-06 00:53:00,46.0,45.0,29.93,West,263,0.0,0.0,97,0.00,,,1.85,,2013-05-06 04:53:00,
2013-05-06 01:02:00,46.0,45.0,29.93,West,263,0.0,1.0,97,0.00,,,1.81,,2013-05-06 05:02:00,
2013-05-06 01:12:00,46.0,45.0,29.93,West,263,0.0,1.0,97,0.00,,,1.81,,2013-05-06 05:12:00,
2013-05-06 01:22:00,46.0,45.0,29.93,West,263,0.0,0.0,97,0.00,,,1.79,,2013-05-06 05:22:00,
2013-05-06 01:32:00,46.0,45.0,29.93,West,263,0.0,0.0,97,0.00,,,1.77,,2013-05-06 05:32:00,
2013-05-06 01:42:00,46.0,45.0,29.93,West,263,0.0,0.0,97,0.00,,,1.77,,2013-05-06 05:42:00,
2013-05-06 01:52:00,45.0,44.0,29.94,West,263,0.0,0.0,97,0.00,,,1.76,,2013-05-06 05:52:00,
2013-05-06 02:02:00,45.0,44.0,29.95,West,263,0.0,0.0,97,0.00,,,1.75,,2013-05-06 06:02:00,
2013-05-06 02:12:00,45.0,44.0,29.95,West,263,0.0,0.0,97,0.00,,,1.75,,2013-05-06 06:12:00,
2013-05-06 02:21:00,44.0,43.0,29.96,West,263,0.0,0.0,97,0.00,,,1.74,,2013-05-06 06:21:00,
2013-05-06 02:32:00,44.0,43.0,29.96,West,263,0.0,0.0,97,0.00,,,1.73,,2013-05-06 06:32:00,
2013-05-06 02:42:00,44.0,43.0,29.96,West,263,0.0,0.0,97,0.00,,,1.73,,2013-05-06 06:42:00,
2013-05-06 02:52:00,44.0,43.0,29.95,West,263,0.0,0.0,98,0.00,,,1.72,,2013-05-06 06:52:00,
2013-05-06 03:01:00,44.0,43.0,29.94,West,263,0.0,0.0,98,0.00,,,1.72,,2013-05-06 07:01:00,
2013-05-06 03:11:00,44.0,43.0,29.94,West,263,0.0,0.0,98,0.00,,,1.72,,2013-05-06 07:11:00,
2013-05-06 03:22:00,44.0,43.0,29.94,West,263,0.0,0.0,98,0.00,,,1.68,,2013-05-06 07:22:00,
2013-05-06 03:32:00,44.0,43.0,29.94,West,263,0.0,0.0,98,0.00,,,1.66,,2013-05-06 07:32:00,
2013-05-06 03:42:00,44.0,43.0,29.94,West,263,0.0,0.0,98,0.00,,,1.66,,2013-05-06 07:42:00,
2013-05-06 03:52:00,45.0,44.0,29.94,West,263,0.0,0.0,98,0.00,,,1.60,,2013-05-06 07:52:00,
2013-05-06 04:02:00,45.0,45.0,29.94,West,263,0.0,0.0,99,0.00,,,1.58,,2013-05-06 08:02:00,
2013-05-06 04:12:00,45.0,45.0,29.94,West,263,0.0,0.0,99,0.00,,,1.58,,2013-05-06 08:12:00,
2013-05-06 04:22:00,45.0,44.0,29.94,West,263,0.0,0.0,98,0.00,,,1.56,,2013-05-06 08:22:00,
2013-05-06 04:32:00,45.0,44.0,29.93,West,263,0.0,0.0,98,0.00,,,1.53,,2013-05-06 08:32:00,
2013-05-06 04:42:00,45.0,44.0,29.93,West,263,0.0,0.0,98,0.00,,,1.53,,2013-05-06 08:42:00,
2013-05-06 04:52:00,44.0,43.0,29.94,West,263,0.0,0.0,98,0.00,,,1.50,,2013-05-06 08:52:00,
2013-05-06 05:01:00,44.0,43.0,29.94,West,263,0.0,0.0,98,0.00,,,1.48,,2013-05-06 09:01:00,
2013-05-06 05:11:00,44.0,43.0,29.94,West,263,0.0,0.0,98,0.00,,,1.48,,2013-05-06 09:11:00,
2013-05-06 05:22:00,45.0,44.0,29.94,West,263,0.0,0.0,98,0.00,,,1.42,,2013-05-06 09:22:00,
2013-05-06 05:33:00,45.0,44.0,29.94,West,263,0.0,0.0,98,0.00,,,1.39,,2013-05-06 09:33:00,
2013-05-06 05:42:00,45.0,44.0,29.94,West,263,0.0,0.0,98,0.00,,,1.39,,2013-05-06 09:42:00,
2013-05-06 05:53:00,45.0,45.0,29.94,West,263,0.0,0.0,99,0.00,,,1.25,,2013-05-06 09:53:00,
2013-05-06 06:02:00,45.0,45.0,29.94,West,263,0.0,0.0,99,0.00,,,1.21,,2013-05-06 10:02:00,
2013-05-06 06:12:00,45.0,45.0,29.94,West,263,0.0,0.0,99,0.00,,,1.21,,2013-05-06 10:12:00,
2013-05-06 06:22:00,45.0,45.0,29.94,West,263,0.0,1.0,99,0.00,,,1.04,,2013-05-06 10:22:00,
2013-05-06 06:33:00,45.0,45.0,29.95,West,263,0.0,0.0,99,0.00,,,1.02,,2013-05-06 10:33:00,
2013-05-06 06:42:00,45.0,45.0,29.95,West,263,0.0,0.0,99,0.00,,,1.02,,2013-05-06 10:42:00,
2013-05-06 06:52:00,45.0,45.0,29.96,West,263,0.0,0.0,99,0.00,,,0.95,,2013-05-06 10:52:00,
2013-05-06 07:02:00,45.0,45.0,29.96,West,263,0.0,1.0,99,0.00,,,0.92,,2013-05-06 11:02:00,
2013-05-06 07:12:00,45.0,45.0,29.96,West,263,0.0,1.0,99,0.00,,,0.92,,2013-05-06 11:12:00,
2013-05-06 07:22:00,45.0,44.0,29.96,West,263,0.0,0.0,98,0.00,,,0.85,,2013-05-06 11:22:00,
2013-05-06 07:32:00,45.0,44.0,29.96,West,263,0.0,0.0,98,0.00,,,0.80,,2013-05-06 11:32:00,
2013-05-06 07:42:00,45.0,44.0,29.96,West,263,0.0,0.0,98,0.00,,,0.80,,2013-05-06 11:42:00,
2013-05-06 07:52:00,45.0,45.0,29.98,West,263,0.0,0.0,99,0.00,,,0.76,,2013-05-06 11:52:00,
2013-05-06 08:01:00,45.0,45.0,29.98,West,263,0.0,0.0,99,0.00,,,0.75,,2013-05-06 12:01:00,
2013-05-06 08:12:00,45.0,45.0,29.98,West,263,0.0,0.0,99,0.00,,,0.75,,2013-05-06 12:12:00,
2013-05-06 08:21:00,45.0,45.0,29.99,West,263,0.0,0.0,99,0.00,,,0.73,,2013-05-06 12:21:00,
2013-05-06 08:32:00,45.0,45.0,29.99,West,263,0.0,0.0,99,0.00,,,0.73,,2013-05-06 12:32:00,
2013-05-06 08:42:00,45.0,45.0,29.99,West,263,0.0,0.0,99,0.00,,,0.73,,2013-05-06 12:42:00,
2013-05-06 08:52:00,45.0,44.0,30.00,West,263,0.0,0.0,98,0.00,,,0.72,,2013-05-06 12:52:00,
2013-05-06 09:01:00,45.0,45.0,30.00,West,263,0.0,0.0,99,0.00,,,0.69,,2013-05-06 13:01:00,
2013-05-06 09:11:00,45.0,45.0,30.00,West,263,0.0,0.0,99,0.00,,,0.69,,2013-05-06 13:11:00,
2013-05-06 09:21:00,45.0,44.0,30.01,West,263,0.0,0.0,98,0.00,,,0.68,,2013-05-06 13:21:00,
2013-05-06 09:32:00,45.0,44.0,30.01,West,263,0.0,0.0,98,0.01,,,0.69,,2013-05-06 13:32:00,
2013-05-06 09:42:00,45.0,44.0,30.01,West,263,0.0,0.0,98,0.01,,,0.69,,2013-05-06 13:42:00,
2013-05-06 09:52:00,45.0,44.0,30.03,West,263,0.0,0.0,98,0.02,,,0.70,,2013-05-06 13:52:00,
2013-05-06 10:01:00,45.0,45.0,30.03,West,263,0.0,0.0,99,0.03,,,0.70,,2013-05-06 14:01:00,
2013-05-06 10:11:00,45.0,45.0,30.03,West,271,0.0,1.0,99,0.05,,,0.72,,2013-05-06 14:11:00,
2013-05-06 10:21:00,45.0,45.0,30.03,West,271,0.0,1.0,99,0.05,,,0.72,,2013-05-06 14:21:00,
2013-05-06 10:32:00,46.0,46.0,30.02,SW,227,0.0,2.0,99,0.04,,,0.71,,2013-05-06 14:32:00,
2013-05-06 10:42:00,46.0,46.0,30.03,West,280,0.0,2.0,99,0.04,,,0.70,,2013-05-06 14:42:00,
2013-05-06 10:52:00,46.0,46.0,30.03,West,280,0.0,2.0,99,0.04,,,0.70,,2013-05-06 14:52:00,
2013-05-06 11:01:00,46.0,46.0,30.03,WNW,283,0.0,2.0,99,0.03,,,0.69,,2013-05-06 15:01:00,
2013-05-06 11:11:00,46.0,46.0,30.03,WNW,283,0.0,2.0,99,0.03,,,0.69,,2013-05-06 15:11:00,
2013-05-06 11:21:00,47.0,47.0,30.03,WNW,283,0.0,1.0,99,0.02,,,0.66,,2013-05-06 15:21:00,
2013-05-06 11:33:00,47.0,47.0,30.03,WNW,283,0.0,0.0,99,0.02,,,0.64,,2013-05-06 15:33:00,
2013-05-06 11:42:00,47.0,47.0,30.03,WNW,283,0.0,0.0,99,0.02,,,0.64,,2013-05-06 15:42:00,
2013-05-06 11:53:00,47.0,47.0,30.04,WNW,283,0.0,0.0,99,0.01,,,0.63,,2013-05-06 15:53:00,
2013-05-06 12:03:00,47.0,47.0,30.04,WNW,283,0.0,0.0,99,0.01,,,0.62,,2013-05-06 16:03:00,
2013-05-06 12:13:00,47.0,47.0,30.04,WNW,283,0.0,0.0,99,0.01,,,0.62,,2013-05-06 16:13:00,
2013-05-06 12:23:00,48.0,48.0,30.03,WNW,283,0.0,0.0,99,0.00,,,0.61,,2013-05-06 16:23:00,
2013-05-06 12:32:00,48.0,48.0,30.03,WNW,283,0.0,0.0,99,0.00,,,0.61,,2013-05-06 16:32:00,
2013-05-06 12:42:00,48.0,48.0,30.03,WNW,283,0.0,0.0,99,0.00,,,0.61,,2013-05-06 16:42:00,
2013-05-06 12:52:00,48.0,48.0,30.03,WNW,283,0.0,0.0,99,0.00,,,0.60,,2013-05-06 16:52:00,
2013-05-06 13:03:00,48.0,48.0,30.03,WNW,283,0.0,0.0,99,0.00,,,0.60,,2013-05-06 17:03:00,
2013-05-06 13:12:00,48.0,48.0,30.03,WNW,283,0.0,0.0,99,0.00,,,0.60,,2013-05-06 17:12:00,
2013-05-06 13:23:00,48.0,47.0,30.03,WNW,283,0.0,0.0,98,0.00,,,0.60,,2013-05-06 17:23:00,
2013-05-06 13:31:00,48.0,47.0,30.03,WNW,283,0.0,1.0,98,0.01,,,0.61,,2013-05-06 17:31:00,
2013-05-06 13:42:00,48.0,47.0,30.03,WNW,283,0.0,1.0,98,0.01,,,0.61,,2013-05-06 17:42:00,
2013-05-06 13:52:00,48.0,47.0,30.04,WNW,283,0.0,0.0,98,0.01,,,0.61,,2013-05-06 17:52:00,
2013-05-06 14:01:00,48.0,47.0,30.04,WNW,283,0.0,0.0,98,0.01,,,0.61,,2013-05-06 18:01:00,
2013-05-06 14:12:00,48.0,47.0,30.04,WNW,283,0.0,0.0,98,0.01,,,0.61,,2013-05-06 18:12:00,
2013-05-06 14:22:00,49.0,49.0,30.04,WNW,283,0.0,0.0,99,0.01,,,0.61,,2013-05-06 18:22:00,
2013-05-06 14:32:00,48.0,47.0,30.04,WNW,283,0.0,0.0,98,0.00,,,0.61,,2013-05-06 18:32:00,
2013-05-06 14:43:00,48.0,47.0,30.04,WNW,283,0.0,0.0,98,0.00,,,0.61,,2013-05-06 18:43:00,
2013-05-06 14:52:00,48.0,48.0,30.04,WNW,283,0.0,1.0,99,0.01,,,0.62,,2013-05-06 18:52:00,
2013-05-06 15:01:00,49.0,49.0,30.04,WNW,283,0.0,0.0,99,0.01,,,0.62,,2013-05-06 19:01:00,
2013-05-06 15:11:00,49.0,49.0,30.04,WNW,283,0.0,0.0,99,0.01,,,0.62,,2013-05-06 19:11:00,
2013-05-06 15:22:00,49.0,49.0,30.04,WNW,283,0.0,0.0,99,0.02,,,0.63,,2013-05-06 19:22:00,
2013-05-06 15:32:00,49.0,49.0,30.04,WNW,283,0.0,0.0,99,0.02,,,0.63,,2013-05-06 19:32:00,
2013-05-06 15:41:00,49.0,49.0,30.04,WNW,283,0.0,0.0,99,0.02,,,0.63,,2013-05-06 19:41:00,
2013-05-06 15:52:00,50.0,50.0,30.04,South,182,0.0,1.0,99,0.01,,,0.63,,2013-05-06 19:52:00,
2013-05-06 16:02:00,50.0,50.0,30.04,SSW,202,1.0,6.0,99,0.01,,,0.63,,2013-05-06 20:02:00,
2013-05-06 16:11:00,49.0,48.0,30.03,South,176,0.0,2.0,98,0.00,,,0.63,,2013-05-06 20:11:00,
2013-05-06 16:21:00,49.0,48.0,30.03,South,176,0.0,2.0,98,0.00,,,0.63,,2013-05-06 20:21:00,
2013-05-06 16:32:00,49.0,48.0,30.03,South,176,0.0,1.0,98,0.00,,,0.63,,2013-05-06 20:32:00,
2013-05-06 16:42:00,49.0,48.0,30.03,South,176,0.0,1.0,98,0.00,,,0.63,,2013-05-06 20:42:00,
2013-05-06 16:52:00,50.0,50.0,30.03,SSE,168,0.0,0.0,99,0.00,,,0.63,,2013-05-06 20:52:00,
2013-05-06 17:01:00,50.0,50.0,30.03,SSE,168,0.0,0.0,99,0.00,,,0.63,,2013-05-06 21:01:00,
2013-05-06 17:11:00,50.0,50.0,30.03,SSE,168,0.0,0.0,99,0.00,,,0.63,,2013-05-06 21:11:00,
2013-05-06 17:21:00,50.0,49.0,30.03,SSE,168,0.0,1.0,98,0.01,,,0.64,,2013-05-06 21:21:00,
2013-05-06 17:33:00,50.0,49.0,30.03,SSE,168,0.0,1.0,98,0.01,,,0.64,,2013-05-06 21:33:00,
2013-05-06 17:43:00,50.0,49.0,30.03,SSE,168,0.0,1.0,98,0.01,,,0.64,,2013-05-06 21:43:00,
2013-05-06 17:53:00,51.0,50.0,30.02,ENE,71,0.0,0.0,98,0.01,,,0.64,,2013-05-06 21:53:00,
2013-05-06 18:03:00,51.0,50.0,30.02,ENE,71,0.0,0.0,98,0.01,,,0.64,,2013-05-06 22:03:00,
2013-05-06 18:12:00,51.0,50.0,30.02,ENE,71,0.0,0.0,98,0.01,,,0.64,,2013-05-06 22:12:00,
2013-05-06 18:22:00,51.0,50.0,30.02,ENE,71,0.0,0.0,98,0.00,,,0.64,,2013-05-06 22:22:00,
2013-05-06 18:33:00,51.0,50.0,30.02,ENE,71,0.0,0.0,98,0.00,,,0.64,,2013-05-06 22:33:00,
2013-05-06 18:45:00,51.0,50.0,30.02,ENE,71,0.0,0.0,98,0.00,,,0.64,,2013-05-06 22:45:00,
2013-05-06 18:52:00,50.0,49.0,30.03,ENE,71,0.0,0.0,98,0.00,,,0.64,,2013-05-06 22:52:00,
2013-05-06 19:03:00,50.0,49.0,30.03,ENE,71,0.0,0.0,98,0.00,,,0.64,,2013-05-06 23:03:00,
2013-05-06 19:12:00,50.0,49.0,30.03,ENE,71,0.0,0.0,98,0.00,,,0.64,,2013-05-06 23:12:00,
2013-05-06 19:22:00,50.0,49.0,30.03,ENE,71,0.0,0.0,98,0.00,,,0.64,,2013-05-06 23:22:00,
2013-05-06 19:32:00,50.0,49.0,30.02,ENE,71,0.0,0.0,98,0.00,,,0.64,,2013-05-06 23:32:00,
2013-05-06 19:42:00,50.0,49.0,30.02,ENE,71,0.0,0.0,98,0.00,,,0.64,,2013-05-06 23:42:00,
2013-05-06 19:52:00,50.0,49.0,30.02,ENE,71,0.0,0.0,98,0.00,,,0.64,,2013-05-06 23:52:00,
2013-05-06 20:01:00,50.0,49.0,30.02,ENE,71,0.0,0.0,98,0.00,,,0.64,,2013-05-07 00:01:00,
2013-05-06 20:11:00,50.0,49.0,30.02,ENE,71,0.0,0.0,98,0.00,,,0.64,,2013-05-07 00:11:00,
2013-05-06 20:21:00,50.0,49.0,30.03,ENE,71,0.0,0.0,98,0.00,,,0.64,,2013-05-07 00:21:00,
2013-05-06 20:32:00,50.0,49.0,30.03,ENE,74,0.0,1.0,98,0.00,,,0.64,,2013-05-07 00:32:00,
2013-05-06 20:42:00,50.0,49.0,30.03,ENE,74,0.0,1.0,98,0.00,,,0.64,,2013-05-07 00:42:00,
2013-05-06 20:52:00,50.0,49.0,30.03,ENE,74,0.0,0.0,98,0.00,,,0.62,,2013-05-07 00:52:00,
2013-05-06 21:01:00,50.0,49.0,30.03,ENE,69,0.0,1.0,98,0.00,,,0.58,,2013-05-07 01:01:00,
2013-05-06 21:11:00,50.0,49.0,30.03,ENE,69,0.0,1.0,98,0.00,,,0.58,,2013-05-07 01:11:00,
2013-05-06 21:21:00,49.0,48.0,30.03,ENE,72,0.0,1.0,98,0.00,,,0.51,,2013-05-07 01:21:00,
2013-05-06 21:32:00,49.0,48.0,30.03,ENE,72,0.0,1.0,98,0.00,,,0.48,,2013-05-07 01:32:00,
2013-05-06 21:42:00,49.0,48.0,30.03,ENE,72,0.0,1.0,98,0.00,,,0.48,,2013-05-07 01:42:00,
2013-05-06 21:53:00,49.0,48.0,30.03,ENE,72,0.0,0.0,98,0.00,,,0.37,,2013-05-07 01:53:00,
2013-05-06 22:02:00,49.0,48.0,30.04,NE,42,0.0,1.0,98,0.00,,,0.34,,2013-05-07 02:02:00,
2013-05-06 22:11:00,49.0,48.0,30.04,NE,42,0.0,1.0,98,0.00,,,0.34,,2013-05-07 02:11:00,
2013-05-06 22:22:00,49.0,48.0,30.05,NE,42,0.0,0.0,98,0.01,,,0.26,,2013-05-07 02:22:00,
2013-05-06 22:32:00,49.0,48.0,30.05,NE,42,0.0,0.0,98,0.02,,,0.24,,2013-05-07 02:32:00,
2013-05-06 22:42:00,49.0,48.0,30.05,NE,42,0.0,0.0,98,0.02,,,0.24,,2013-05-07 02:42:00,
2013-05-06 22:52:00,49.0,48.0,30.05,NE,43,0.0,1.0,98,0.03,,,0.23,,2013-05-07 02:52:00,
2013-05-06 23:01:00,49.0,49.0,30.05,NE,42,0.0,0.0,99,0.04,,,0.23,,2013-05-07 03:01:00,
2013-05-06 23:11:00,49.0,49.0,30.05,NE,42,0.0,0.0,99,0.04,,,0.23,,2013-05-07 03:11:00,
2013-05-06 23:22:00,49.0,49.0,30.05,NE,55,0.0,0.0,99,0.05,,,0.24,,2013-05-07 03:22:00,
2013-05-06 23:32:00,49.0,49.0,30.05,NE,55,0.0,1.0,99,0.04,,,0.23,,2013-05-07 03:32:00,
2013-05-06 23:42:00,49.0,49.0,30.05,NE,55,0.0,1.0,99,0.04,,,0.23,,2013-05-07 03:42:00,
2013-05-06 23:53:00,49.0,49.0,30.05,NE,55,0.0,1.0,99,0.04,,,0.20,,2013-05-07 03:53:00,